Weather History for Corpus Christi NAS, TX

Change the Weather History Date:

Sunday, June 16, 2013

  Actual Average Record
Temperature  
Mean Temperature 86 °F -  
Max Temperature 91 °F 87 °F 93 °F (1997)
Min Temperature 81 °F 75 °F 71 °F (2003)
Cooling Degree Days 20    
Growing Degree Days 36 (Base 50)    
Moisture  
Dew Point 77 °F    
Average Humidity 79    
Maximum Humidity 88    
Minimum Humidity 68    
Precipitation  
Precipitation 0.00 in - - ()
Sea Level Pressure  
Sea Level Pressure 29.96 in    
Wind  
Wind Speed 15 mph (SSE)    
Max Wind Speed 23 mph    
Max Gust Speed 66 mph    
Visibility 10 miles    
Events      
Averages and records for this station are not official NWS values.
T = Trace of Precipitation, MM = Missing Value Source: NWS Daily Summary

Daily Weather History Graph

Daily Weather History Graph

Search for Another Location

Airport:

Trip Planner

Search our weather history database for the weather conditions in past years. The results will help you decide how hot, cold, wet, or windy it might be!

Date:

Astronomy

Jun. 16, 2013 Rise Set
Actual Time 6:33 AM CDT 8:26 PM CDT
Civil Twilight 6:06 AM CDT 8:53 PM CDT
Nautical Twilight 5:34 AM CDT 9:25 PM CDT
Astronomical Twilight 5:00 AM CDT 9:59 PM CDT
Moon 1:34 PM CDT (6/16) 1:05 AM CDT (6/16)
Length of Visible Light 14h 46m
Length of Day
13h 53m
Waxing Crescent, 50% of the Moon is Illuminated
Jun 16
Waxing Crescent
Jun 16
First Quarter
Jun 23
Full
Jun 29
Last Quarter
Jul 8
New

Hourly Weather History & Observations

Time (CDT) Temp. Heat Index Dew Point Humidity Pressure Visibility Wind Dir Wind Speed Gust Speed Precip Events Conditions
12:56 AM 81.0 °F 87.3 °F 75.9 °F 85% 29.95 in 10.0 mi SSE 15.0 mph 206.0 mph N/A   Unknown
1:56 AM 81.0 °F 87.3 °F 75.9 °F 85% 29.95 in 10.0 mi SSE 13.8 mph 206.0 mph N/A   Unknown
2:56 AM 81.0 °F 87.3 °F 75.9 °F 85% 29.94 in 10.0 mi South 11.5 mph 206.0 mph N/A   Unknown
3:56 AM 81.0 °F 87.3 °F 75.9 °F 85% 29.93 in 10.0 mi South 12.7 mph 206.0 mph N/A   Unknown
4:56 AM 81.0 °F 87.3 °F 75.9 °F 85% 29.93 in 10.0 mi South 12.7 mph 206.0 mph N/A   Unknown
5:56 AM 81.0 °F 87.3 °F 75.9 °F 85% 29.93 in 10.0 mi South 11.5 mph 206.0 mph N/A   Unknown
6:56 AM 81.0 °F 87.9 °F 77.0 °F 88% 29.95 in 10.0 mi SSE 9.2 mph 206.0 mph N/A   Unknown
7:56 AM 82.9 °F 91.8 °F 77.0 °F 82% 29.97 in 10.0 mi SSE 11.5 mph 206.0 mph N/A   Unknown
8:56 AM 82.9 °F 91.8 °F 77.0 °F 82% 29.99 in 10.0 mi SSE 12.7 mph 206.0 mph N/A   Unknown
9:56 AM 86.0 °F 96.9 °F 77.0 °F 74% 30.00 in 10.0 mi SSE 11.5 mph 206.0 mph N/A   Unknown
10:56 AM 88.0 °F 100.2 °F 77.0 °F 70% 30.00 in 10.0 mi SE 15.0 mph 206.0 mph N/A   Unknown
11:56 AM 89.1 °F 103.2 °F 78.1 °F 70% 29.99 in 10.0 mi SSE 16.1 mph 206.0 mph N/A   Unknown
12:56 PM 89.1 °F 103.2 °F 78.1 °F 70% 29.99 in 10.0 mi SE 18.4 mph 206.0 mph N/A   Unknown
1:56 PM 90.0 °F 104.5 °F 78.1 °F 68% 29.99 in 10.0 mi ESE 18.4 mph 206.0 mph N/A   Unknown
2:56 PM 87.1 °F 99.8 °F 78.1 °F 74% 29.96 in 10.0 mi SE 19.6 mph 65.6 mph N/A   Unknown
3:01 PM 87.8 °F 102.5 °F 78.8 °F 75% 29.96 in 10.0 mi SE 18.4 mph 26.5 mph N/A   Scattered Clouds
3:56 PM 89.1 °F 103.2 °F 78.1 °F 70% 29.95 in 10.0 mi SE 19.6 mph - N/A   Mostly Cloudy
4:56 PM 88.0 °F 100.2 °F 77.0 °F 70% 29.94 in 10.0 mi SE 23.0 mph - N/A   Mostly Cloudy
5:56 PM 84.9 °F 94.1 °F 75.9 °F 74% 29.94 in 10.0 mi SE 17.3 mph 23.0 mph N/A   Mostly Cloudy
6:56 PM 84.0 °F 93.7 °F 77.0 °F 79% 29.92 in 10.0 mi SE 19.6 mph - N/A   Mostly Cloudy
7:56 PM 82.9 °F 90.8 °F 75.9 °F 79% 29.93 in 10.0 mi SE 18.4 mph 25.3 mph N/A   Mostly Cloudy
8:56 PM 82.0 °F 89.4 °F 75.9 °F 82% 29.93 in 10.0 mi SSE 17.3 mph 26.5 mph N/A   Mostly Cloudy
9:56 PM 82.0 °F 89.4 °F 75.9 °F 82% 29.94 in 10.0 mi SSE 18.4 mph 25.3 mph N/A   Scattered Clouds
10:56 PM 82.0 °F 90.2 °F 77.0 °F 85% 29.96 in 10.0 mi SSE 16.1 mph 206.0 mph N/A   Unknown
11:56 PM 82.0 °F 90.2 °F 77.0 °F 85% 29.97 in 10.0 mi SSE 16.1 mph 206.0 mph N/A   Unknown